Wellsville, NY

5:21 PM EST on December 11, 2019 (GMT -0500)
Wellsville Municipal-Tarantine

Weather History for KELZ - July, 2019

Change the Weather History Date:

Sunday, July 21, 2019

  Actual Average (KDSV) Record (KDSV)
Temperature  
Mean Temperature 76 °F -  
Max Temperature 84 °F 83 °F 102 °F (2011)
Min Temperature 64 °F 59 °F 44 °F (1965)
Cooling Degree Days 11    
Growing Degree Days 26 (Base 50)    
Moisture  
Dew Point 67 °F    
Average Humidity 79    
Maximum Humidity 97    
Minimum Humidity 53    
Precipitation  
Precipitation 0.24 in - - ()
Sea Level Pressure  
Sea Level Pressure 29.93 in    
Wind  
Wind Speed 9 mph (WNW)    
Max Wind Speed 16 mph    
Max Gust Speed 24 mph    
Visibility 9 miles    
Events Rain , Thunderstorm    
Averages and records for this station are not official NWS values.
T = Trace of Precipitation, MM = Missing Value Source: NWS Daily Summary

Daily Weather History Graph

Daily Weather History Graph

Search for Another Location

Airport or City:

Astronomy

Jul. 21, 2019 Rise Set
Actual Time 5:54 AM EDT 8:41 PM EDT
Civil Twilight 5:21 AM EDT 9:14 PM EDT
Nautical Twilight 4:40 AM EDT 9:55 PM EDT
Astronomical Twilight 3:52 AM EDT 10:43 PM EDT
Moon 11:31 PM EDT (7/21) 10:16 AM EDT (7/21)
Length of Visible Light 15h 53m
Length of Day
14h 47m
Waning Gibbous, 80% of the Moon is Illuminated
Jul 21
Waning Gibbous
Jul 24
Last Quarter
Jul 31
New
Aug 7
First Quarter
Aug 15
Full

Hourly Weather History & Observations

Time (EDT) Temp. Heat Index Dew Point Humidity Pressure Visibility Wind Dir Wind Speed Gust Speed Precip Events Conditions
12:56 AM 73.9 °F - 69.1 °F 85% 29.89 in 10.0 mi SW 4.6 mph - N/A   Clear
1:56 AM 73.0 °F - 69.1 °F 87% 29.85 in 10.0 mi SSW 12.7 mph - N/A   Scattered Clouds
2:56 AM 73.0 °F - 68.0 °F 84% 29.86 in 10.0 mi WSW 5.8 mph - N/A   Partly Cloudy
3:56 AM 73.9 °F - 70.0 °F 87% 29.86 in 10.0 mi WSW 11.5 mph 20.7 mph N/A   Overcast
4:59 AM 73.0 °F - 70.0 °F 90% 29.94 in - West 12.7 mph 19.6 mph N/A Thunderstorm Thunderstorm
5:22 AM 71.1 °F - 68.0 °F 90% 29.94 in 10.0 mi West 9.2 mph - 0.03 in   Scattered Clouds
5:31 AM 71.1 °F - 69.1 °F 93% 29.96 in 2.0 mi WNW 13.8 mph - 0.11 in Thunderstorm Mostly Cloudy
5:35 AM 70.0 °F - 69.1 °F 97% 29.94 in 0.8 mi WSW 9.2 mph - 0.24 in Rain , Thunderstorm Heavy Thunderstorms and Rain
5:43 AM 73.0 °F - 70.0 °F 90% 29.94 in 2.5 mi West 13.8 mph 24.2 mph 0.24 in Rain , Thunderstorm Light Thunderstorms and Rain
5:46 AM 73.0 °F - 70.0 °F 90% 29.95 in 8.0 mi West 9.2 mph 24.2 mph 0.24 in Rain , Thunderstorm Light Rain
5:56 AM 72.0 °F - 70.0 °F 93% 29.90 in 10.0 mi WSW 6.9 mph - 0.24 in Thunderstorm Mostly Cloudy
6:56 AM 72.0 °F - 70.0 °F 93% 29.91 in 10.0 mi West 10.4 mph - 0.00 in   Clear
7:56 AM 73.0 °F - 71.1 °F 93% 29.92 in 9.0 mi West 9.2 mph - N/A   Clear
8:56 AM 75.0 °F - 70.0 °F 84% 29.92 in 10.0 mi West 8.1 mph - N/A   Clear
9:56 AM 78.1 °F - 69.1 °F 74% 29.91 in 10.0 mi West 15.0 mph - N/A   Clear
10:56 AM 79.0 °F - 66.9 °F 66% 29.91 in 10.0 mi WNW 16.1 mph - N/A   Clear
11:56 AM 81.0 °F 83.3 °F 66.9 °F 62% 29.91 in 10.0 mi West 11.5 mph - N/A   Clear
12:56 PM 82.9 °F 85.0 °F 66.0 °F 56% 29.91 in 10.0 mi West 15.0 mph - N/A   Partly Cloudy
1:56 PM 84.0 °F 85.8 °F 64.9 °F 53% 29.92 in 10.0 mi WNW 12.7 mph 21.9 mph N/A   Scattered Clouds
2:56 PM 82.9 °F 84.4 °F 64.0 °F 53% 29.91 in 10.0 mi WNW 16.1 mph 21.9 mph N/A   Mostly Cloudy
3:56 PM 80.1 °F 82.7 °F 68.0 °F 67% 29.91 in 10.0 mi Variable 5.8 mph - N/A   Overcast
4:56 PM 79.0 °F - 69.1 °F 72% 29.91 in 10.0 mi NNE 9.2 mph 16.1 mph N/A   Mostly Cloudy
5:56 PM 78.1 °F - 68.0 °F 71% 29.92 in 10.0 mi North 8.1 mph - N/A   Mostly Cloudy
6:56 PM 73.9 °F - 66.0 °F 76% 29.95 in 10.0 mi NNW 10.4 mph - N/A   Overcast
7:09 PM 75.0 °F - 66.0 °F 73% 29.99 in 10.0 mi NNW 9.2 mph - N/A   Overcast
7:17 PM 73.9 °F - 66.0 °F 76% 30.00 in 10.0 mi NNW 9.2 mph - N/A   Overcast
7:56 PM 73.0 °F - 64.0 °F 73% 29.96 in 10.0 mi NW 5.8 mph - N/A   Overcast
8:32 PM 71.1 °F - 64.0 °F 78% 30.01 in 10.0 mi NW 6.9 mph - N/A   Mostly Cloudy
8:56 PM 69.1 °F - 63.0 °F 81% 29.96 in 10.0 mi NW 4.6 mph - N/A   Clear
9:56 PM 69.1 °F - 64.0 °F 84% 29.96 in 10.0 mi Calm Calm - N/A   Clear
10:56 PM 68.0 °F - 61.0 °F 78% 29.96 in 10.0 mi Calm Calm - N/A   Clear
11:56 PM 64.9 °F - 61.0 °F 87% 29.96 in 10.0 mi WSW 3.5 mph - N/A   Clear